Weather in Belovo

Russia / Kemerovo Oblast     54°25′19″N   86°18′13″E
temp.,
°C
wind,
m/s
gust,
m/s
humid.,
%
clouds,
%
prec.,
mm/h
press.,
hPa
HPBL,
m
7 may, fri
fri701:00+16sse3669100 0.0 100493
04:00+15sse3573100 0.0 100283
07:00+16wsw41066100 0.0 1003323
10:00+16wnw7971100 0.0 1006737
13:00+19wnw6846100 0.0 10081435
16:00+19nw81039100 0.0 10092248
19:00+16wnw793940 0.0 10121896
22:00+12wsw5115295 0.0 1015268
8 may, sat
sat801:00+10wsw5115722 0.0 1016311
04:00+8w39660 0.0 1018192
07:00+8w37660 0.0 1019211
10:00+13w57370 0.0 10191542
13:00+16w693669 0.0 10172164
16:00+17w71242100 0.0 10162398
19:00+16w7124953 0.0 1016760
22:00+14w71359100 0.1 1016678
9 may, sun
sun901:00+12w3970100 0.3 1016252
04:00+10wnw377998 0.0 1016191
07:00+8n476834 0.0 1018409
10:00+10nnw56543 0.0 1018980
13:00+12nnw56435 0.0 10181519
16:00+13n55365 0.0 10181779
19:00+12nne56362 0.0 10191783
22:00+8ne410540 0.0 1020313
10 may, mon
mon1001:00+6ne39620 0.0 1020236
04:00+4nne511661 0.0 1020249
07:00+4ne586921 0.0 1019288
10:00+10ene33495 0.0 1018780
13:00+14ene56353 0.0 10151574
16:00+17ene7828100 0.0 10132175
19:00+15ene8103882 0.0 10121241
22:00+11ne7145019 0.0 1013569
11 may, tue
tue1101:00+8ne6136059 0.0 1013495
04:00+6nne511702 0.0 1013324
07:00+7nne510693 0.0 1013356
10:00+12ne554230 0.0 1012951
13:00+16ne443244 0.0 10111690
16:00+18ene4427100 0.0 10112489
19:00+17ene6835100 0.0 10121139
22:00+12ne51150100 0.0 1013323